Location: *
(46.1006°N, 1.8394°E)
Time: 05:41:01
(UTC+00:00)

CZ-2D R/B - Pass Details

Date: 20 September 2019
Orbit: 523 x 538 km, 97.4° (Epoch: 16 October)

Event Time Altitude Azimuth Distance (km) Brightness Sun altitude
Rises 18:27:44 0° 160° (SSE) 2,642 6.5 -6.5°
Reaches altitude 10° 18:29:50 10° 157° (SSE) 1,757 5.6 -6.8°
Maximum altitude 18:33:36 68° 75° (ENE) 569 3.2 -7.5°
Drops below altitude 10° 18:37:24 10° 353° (N) 1,773 6.1 -8.1°
Sets 18:39:31 0° 350° (N) 2,668 7.1 -8.5°
